When you browse on this site, cookies collect data to enhance your experience and personalize the content and advertising you see.
Visit our Privacy Policy to learn more. By continuing to use the site, you agree to this use of cookies and data.
  • Em Portugal
  • Lista de países
  • Para 7 dias
  • Temperatura da água
  • Mapas de satélite
  • Mapa do tempo
  • Widgets de tempo
  • user-avatar
    Iniciar Sessão

    Previsão horária em Maceió

    Hoje, 18 Novembro, Domingo

    Tempo Temperatura Precipitação Vento Pressão Humidade
    00:00 +26°C° 0.1 mm 4 m/s 760 mmHg 92%
    01:00 +25°C° 0.1 mm 4 m/s 760 mmHg 92%
    02:00 +25°C° 0.1 mm 5 m/s 760 mmHg 93%
    03:00 +25°C° 0.1 mm 5 m/s 759 mmHg 93%
    04:00 +25°C° 0 mm 5 m/s 759 mmHg 93%
    05:00 +26°C° 0.1 mm 5 m/s 759 mmHg 91%
    06:00 +26°C° 0.1 mm 5 m/s 760 mmHg 88%
    07:00 +27°C° 0.1 mm 5 m/s 760 mmHg 86%
    08:00 +28°C° 0.1 mm 5 m/s 760 mmHg 76%
    09:00 +30°C° 0.1 mm 5 m/s 760 mmHg 66%
    10:00 +33°C° 0.1 mm 5 m/s 760 mmHg 57%
    11:00 +33°C° 0 mm 5 m/s 760 mmHg 54%
    12:00 +34°C° 0 mm 5 m/s 760 mmHg 52%
    13:00 +34°C° 0 mm 5 m/s 760 mmHg 50%
    14:00 +34°C° 0 mm 5 m/s 759 mmHg 51%
    15:00 +34°C° 0 mm 5 m/s 759 mmHg 52%
    16:00 +34°C° 0 mm 5 m/s 759 mmHg 52%
    17:00 +32°C° 0 mm 5 m/s 759 mmHg 60%
    18:00 +29°C° 0 mm 4 m/s 759 mmHg 68%
    19:00 +27°C° 0 mm 4 m/s 759 mmHg 76%
    20:00 +27°C° 0.1 mm 4 m/s 760 mmHg 80%
    21:00 +26°C° 0.1 mm 4 m/s 760 mmHg 83%
    22:00 +25°C° 0.1 mm 4 m/s 760 mmHg 87%
    23:00 +25°C° 0.1 mm 4 m/s 760 mmHg 87%

    Amanhã, 19 Novembro, Segunda-feira

    Tempo Temperatura Precipitação Vento Pressão Humidade
    00:00 +25°C° 0.1 mm 4 m/s 760 mmHg 88%
    01:00 +25°C° 0.1 mm 4 m/s 759 mmHg 88%
    02:00 +25°C° 0.1 mm 4 m/s 759 mmHg 87%
    03:00 +26°C° 0.1 mm 4 m/s 759 mmHg 85%
    04:00 +26°C° 0.1 mm 3 m/s 758 mmHg 84%
    05:00 +26°C° 0.1 mm 3 m/s 759 mmHg 83%
    06:00 +26°C° 0.1 mm 4 m/s 759 mmHg 82%
    07:00 +27°C° 0.1 mm 4 m/s 759 mmHg 81%
    08:00 +29°C° 0.1 mm 4 m/s 759 mmHg 71%
    09:00 +32°C° 0.1 mm 4 m/s 760 mmHg 62%
    10:00 +34°C° 0.1 mm 5 m/s 760 mmHg 53%
    11:00 +34°C° 0 mm 5 m/s 760 mmHg 52%
    12:00 +34°C° 0 mm 5 m/s 760 mmHg 51%
    13:00 +34°C° 0 mm 5 m/s 759 mmHg 50%
    14:00 +34°C° 0 mm 5 m/s 759 mmHg 50%
    15:00 +34°C° 0 mm 5 m/s 758 mmHg 51%
    16:00 +34°C° 0 mm 5 m/s 758 mmHg 52%
    17:00 +32°C° 0 mm 5 m/s 758 mmHg 58%
    18:00 +30°C° 0 mm 4 m/s 758 mmHg 65%
    19:00 +28°C° 0 mm 4 m/s 758 mmHg 72%
    20:00 +27°C° 0.1 mm 4 m/s 759 mmHg 77%
    21:00 +26°C° 0.1 mm 4 m/s 760 mmHg 82%
    22:00 +26°C° 0.1 mm 5 m/s 760 mmHg 88%
    23:00 +26°C° 0.1 mm 5 m/s 760 mmHg 89%

    Depois de amanhã, 20 Novembro, Terça-feira

    Tempo Temperatura Precipitação Vento Pressão Humidade
    00:00 +26°C° 0.1 mm 5 m/s 760 mmHg 90%
    01:00 +25°C° 0.1 mm 5 m/s 760 mmHg 91%
    02:00 +25°C° 0.1 mm 5 m/s 760 mmHg 92%
    03:00 +25°C° 0.1 mm 4 m/s 759 mmHg 92%
    04:00 +25°C° 0.1 mm 4 m/s 759 mmHg 92%
    05:00 +25°C° 0.1 mm 4 m/s 759 mmHg 89%
    06:00 +26°C° 0.1 mm 4 m/s 760 mmHg 86%
    07:00 +27°C° 0.1 mm 4 m/s 760 mmHg 83%
    08:00 +29°C° 0.1 mm 5 m/s 760 mmHg 73%
    09:00 +32°C° 0.1 mm 5 m/s 761 mmHg 64%
    10:00 +34°C° 0.1 mm 6 m/s 761 mmHg 54%
    11:00 +34°C° 0 mm 6 m/s 761 mmHg 52%
    12:00 +34°C° 0 mm 6 m/s 760 mmHg 51%
    13:00 +34°C° 0 mm 6 m/s 760 mmHg 49%
    14:00 +34°C° 0 mm 6 m/s 759 mmHg 51%
    15:00 +34°C° 0 mm 6 m/s 759 mmHg 52%
    16:00 +33°C° 0 mm 6 m/s 758 mmHg 54%
    17:00 +32°C° 0.1 mm 6 m/s 758 mmHg 61%
    18:00 +29°C° 0.1 mm 6 m/s 759 mmHg 69%
    19:00 +28°C° 0.1 mm 6 m/s 759 mmHg 77%
    20:00 +27°C° 0.2 mm 5 m/s 760 mmHg 81%
    21:00 +27°C° 0.2 mm 5 m/s 760 mmHg 85%
    22:00 +26°C° 0.2 mm 5 m/s 761 mmHg 89%
    23:00 +26°C° 0.1 mm 5 m/s 761 mmHg 91%

    21 Novembro, Quarta-feira

    Tempo Temperatura Precipitação Vento Pressão Humidade
    00:00 +26°C° 0.1 mm 5 m/s 760 mmHg 92%
    01:00 +26°C° 0.1 mm 5 m/s 760 mmHg 93%
    02:00 +25°C° 0.1 mm 5 m/s 760 mmHg 93%
    03:00 +25°C° 0.1 mm 5 m/s 759 mmHg 94%
    04:00 +25°C° 0.1 mm 5 m/s 759 mmHg 94%
    05:00 +26°C° 0.2 mm 5 m/s 759 mmHg 91%
    06:00 +26°C° 0.2 mm 5 m/s 760 mmHg 88%
    07:00 +27°C° 0.2 mm 5 m/s 760 mmHg 84%
    08:00 +28°C° 0.1 mm 6 m/s 760 mmHg 76%
    09:00 +30°C° 0.1 mm 6 m/s 761 mmHg 68%
    10:00 +32°C° 0.1 mm 6 m/s 761 mmHg 60%
    11:00 +33°C° 0.1 mm 6 m/s 761 mmHg 57%
    12:00 +34°C° 0.1 mm 7 m/s 760 mmHg 54%
    13:00 +35°C° 0.1 mm 7 m/s 760 mmHg 50%
    14:00 +33°C° 0.1 mm 7 m/s 759 mmHg 56%
    15:00 +32°C° 0.1 mm 7 m/s 759 mmHg 62%
    16:00 +29°C° 0.1 mm 7 m/s 758 mmHg 68%
    17:00 +29°C° 0.1 mm 6 m/s 759 mmHg 73%
    18:00 +28°C° 0.1 mm 6 m/s 759 mmHg 77%
    19:00 +27°C° 0.1 mm 6 m/s 760 mmHg 82%
    20:00 +27°C° 0.1 mm 6 m/s 760 mmHg 83%
    21:00 +27°C° 0.1 mm 6 m/s 760 mmHg 83%
    22:00 +27°C° 0.1 mm 6 m/s 761 mmHg 84%
    23:00 +26°C° 0.1 mm 5 m/s 760 mmHg 84%

    22 Novembro, Quinta-feira

    Tempo Temperatura Precipitação Vento Pressão Humidade
    00:00 +26°C° 0.1 mm 5 m/s 760 mmHg 85%
    01:00 +26°C° 0.1 mm 5 m/s 760 mmHg 85%
    02:00 +26°C° 0.1 mm 5 m/s 759 mmHg 86%
    03:00 +25°C° 0.1 mm 5 m/s 759 mmHg 87%
    04:00 +25°C° 0.1 mm 5 m/s 759 mmHg 88%
    05:00 +25°C° 0.1 mm 5 m/s 759 mmHg 86%
    06:00 +26°C° 0.1 mm 5 m/s 759 mmHg 85%
    07:00 +26°C° 0.1 mm 5 m/s 759 mmHg 83%
    08:00 +28°C° 0.1 mm 5 m/s 760 mmHg 74%
    09:00 +30°C° 0.1 mm 6 m/s 760 mmHg 66%
    10:00 +32°C° 0.1 mm 6 m/s 760 mmHg 58%
    11:00 +32°C° 0.1 mm 6 m/s 760 mmHg 57%
    12:00 +33°C° 0.1 mm 6 m/s 759 mmHg 55%
    13:00 +33°C° 0.1 mm 6 m/s 759 mmHg 54%
    14:00 +32°C° 0.1 mm 6 m/s 758 mmHg 57%
    15:00 +30°C° 0.1 mm 6 m/s 758 mmHg 60%
    16:00 +30°C° 0.1 mm 5 m/s 758 mmHg 63%
    17:00 +29°C° 0.1 mm 5 m/s 758 mmHg 68%
    18:00 +28°C° 0.1 mm 5 m/s 759 mmHg 72%
    19:00 +27°C° 0.1 mm 5 m/s 759 mmHg 77%
    20:00 +27°C° 0.2 mm 5 m/s 759 mmHg 79%
    21:00 +26°C° 0.2 mm 5 m/s 760 mmHg 82%
    22:00 +26°C° 0.2 mm 5 m/s 760 mmHg 85%
    23:00 +26°C° 0.2 mm 5 m/s 760 mmHg 86%

    23 Novembro, Sexta-feira

    Tempo Temperatura Precipitação Vento Pressão Humidade
    00:00 +26°C° 0.2 mm 5 m/s 759 mmHg 87%
    01:00 +26°C° 0.2 mm 4 m/s 759 mmHg 88%
    02:00 +25°C° 0.1 mm 5 m/s 759 mmHg 88%
    03:00 +25°C° 0.1 mm 5 m/s 758 mmHg 89%
    04:00 +25°C° 0.1 mm 5 m/s 758 mmHg 90%
    05:00 +25°C° 0 mm 5 m/s 758 mmHg 88%
    06:00 +26°C° 0 mm 4 m/s 759 mmHg 86%
    07:00 +26°C° 0 mm 4 m/s 759 mmHg 85%
    08:00 +28°C° 0.1 mm 5 m/s 759 mmHg 76%
    09:00 +30°C° 0.1 mm 5 m/s 759 mmHg 66%
    10:00 +33°C° 0.1 mm 5 m/s 759 mmHg 57%
    11:00 +33°C° 0.1 mm 5 m/s 759 mmHg 59%
    12:00 +32°C° 0.1 mm 6 m/s 759 mmHg 61%
    13:00 +32°C° 0.1 mm 6 m/s 758 mmHg 63%
    14:00 +32°C° 0.1 mm 6 m/s 758 mmHg 63%
    15:00 +32°C° 0.1 mm 6 m/s 758 mmHg 62%
    16:00 +32°C° 0.1 mm 6 m/s 757 mmHg 62%
    17:00 +30°C° 0.1 mm 5 m/s 758 mmHg 69%
    18:00 +28°C° 0.1 mm 5 m/s 758 mmHg 76%
    19:00 +27°C° 0.1 mm 5 m/s 759 mmHg 83%
    20:00 +27°C° 0.1 mm 5 m/s 759 mmHg 86%
    21:00 +26°C° 0.1 mm 5 m/s 759 mmHg 89%
    22:00 +26°C° 0.1 mm 5 m/s 759 mmHg 92%
    23:00 +26°C° 0.1 mm 5 m/s 759 mmHg 93%
    Mostrar mais